Wind_Speed
24 24 25 25 26 27 28 28 27 27 28 29 31 34 36 38 39 40 40 39 38 38 38 38 39 39 38 37 36 33 31 30 29 28 28 28 29 30 31 33 35 37 39
28 28 28 28 28 29 30 30 30 30 32 33 36 37 40 42 43 43 42 40 37 36 36 35 33 33 34 34 32 30 28 27 26 27 29 30 31 31 34 36 39 41 43
32 32 31 30 29 30 31 32 32 33 35 37 38 40 43 45 45 44 41 39 37 33 31 30 30 29 28 28 27 26 25 26 27 28 31 33 35 37 38 41 44 46 49
36 35 34 32 30 31 31 32 34 36 37 39 40 42 45 48 48 45 39 36 32 29 29 28 28 27 27 26 25 23 25 27 29 32 35 38 41 44 47 48 49 51 54
40 38 35 33 31 31 32 33 35 37 39 40 42 44 46 47 45 43 41 37 34 29 26 26 26 26 26 26 26 27 29 32 34 36 39 42 45 48 51 55 57 58 60
39 37 34 33 32 32 33 34 36 38 39 41 43 42 43 44 42 42 38 37 33 29 26 26 27 27 28 29 29 31 35 37 39 42 45 47 50 52 55 58 60 62 63
35 34 33 32 32 32 33 34 36 38 39 40 40 40 41 40 40 39 38 37 34 32 31 31 30 30 32 33 34 36 40 43 45 48 50 53 55 57 59 61 63 64 64
29 29 28 28 28 29 30 31 33 35 37 38 38 39 39 39 39 39 39 37 36 35 33 33 35 35 36 38 40 42 45 47 50 53 55 57 59 61 62 64 64 65 64
25 24 24 25 26 27 29 31 33 34 36 37 38 38 38 38 40 40 39 39 38 37 36 37 38 39 41 43 44 46 49 52 55 57 59 60 62 63 64 64 64 65 64
23 23 23 24 26 28 29 31 33 34 35 36 37 38 39 39 40 41 40 40 39 39 39 40 42 43 45 46 49 52 54 56 58 59 61 62 63 63 63 63 63 64 63
24 25 25 26 28 29 31 32 34 35 36 37 38 39 40 41 41 42 42 42 42 43 43 44 45 47 49 51 53 55 57 58 59 61 61 62 61 61 61 61 62 62 63
25 26 28 29 30 32 33 35 36 37 39 40 41 42 43 44 44 45 45 46 46 47 47 48 49 51 53 54 56 57 58 59 60 60 60 60 59 59 59 60 61 62 63
28 29 31 32 33 35 36 37 39 40 41 42 43 44 45 47 48 49 49 49 50 51 51 52 53 53 54 56 57 58 58 59 59 58 58 57 57 57 58 59 61 61 61
33 34 36 36 37 39 40 41 42 43 44 45 45 46 47 49 50 51 51 52 53 53 53 53 54 55 55 56 57 57 57 57 56 55 55 55 55 56 57 58 59 58 56
38 39 40 40 41 42 43 44 46 46 46 46 47 48 48 49 51 52 53 53 54 54 55 55 55 55 55 56 56 55 55 54 53 53 53 54 55 56 56 55 54 51 47
41 41 41 42 43 44 44 45 44 44 44 45 46 48 49 51 52 53 54 55 55 55 54 54 54 54 54 54 54 53 52 52 51 51 52 53 54 53 52 50 46 42 38
42 42 42 42 42 42 42 41 41 42 44 46 48 50 51 52 54 54 54 54 53 53 53 53 53 53 52 52 51 51 50 50 50 51 51 51 50 48 45 41 38 34 30
40 39 38 39 40 40 40 41 43 44 47 49 50 51 52 52 52 52 51 51 52 52 52 52 52 52 51 50 50 49 49 49 49 49 48 46 43 39 35 33 30 28 27
36 36 37 38 39 39 40 42 44 46 48 49 50 50 50 50 50 50 50 50 51 51 51 51 50 50 49 48 48 48 48 47 46 45 42 38 34 30 27 25 24 25 26
34 35 36 37 39 40 42 44 45 46 47 48 48 48 48 48 49 49 49 49 49 49 49 49 48 48 47 47 47 46 45 43 41 38 35 31 26 23 20 20 21 23 25
34 36 38 39 40 41 42 43 44 45 45 45 45 46 46 46 46 46 46 47 47 47 47 47 47 46 46 45 43 41 39 36 33 30 27 24 19 17 17 18 20 22 23
34 35 37 38 39 40 41 41 41 42 42 42 42 42 42 43 43 44 45 45 45 45 45 45 44 43 41 39 36 34 31 29 26 24 21 17 13 13 15 18 20 20 20
33 34 35 36 37 37 38 38 38 38 38 38 38 39 40 41 41 42 42 42 42 42 41 40 38 36 34 32 30 28 25 23 20 17 13 10 9 11 14 16 17 17 16
30 31 32 32 32 33 33 33 33 34 34 35 36 37 37 38 38 39 39 38 37 36 35 33 32 30 28 26 24 22 19 15 12 8 6 6 8 10 12 13 13 13 13
27 27 27 27 27 28 28 29 30 31 32 33 34 34 35 35 35 34 33 32 31 29 28 27 25 23 21 19 17 14 9 6 3 3 2 3 6 8 10 10 11 12 13
22 21 22 22 23 24 26 27 28 29 31 31 32 32 32 31 29 28 27 26 24 22 21 19 18 16 15 12 9 5 2 4 5 3 1 3 5 7 9 10 11 12 14
Wind_Direction
265 268 272 276 278 280 282 281 281 284 287 290 292 293 295 295 291 287 287 285 281 278 275 273 270 266 265 268 269 270 272 274 276 279 284 286 290 292 291 291 291 291 290
266 269 272 274 275 276 277 277 278 280 283 284 287 290 290 289 286 286 287 285 283 280 276 273 273 270 270 271 271 273 275 280 286 288 290 293 292 293 295 295 294 293 292
266 270 273 274 273 273 274 274 276 279 281 284 287 291 290 290 290 292 294 292 288 281 278 273 274 278 278 276 274 279 284 289 292 295 296 296 296 296 296 297 296 295 293
269 272 272 271 270 270 271 273 275 277 280 284 287 289 291 292 296 296 299 305 302 293 282 278 280 282 281 280 282 287 292 295 298 298 298 298 299 300 300 298 297 295 294
270 271 270 268 267 267 269 270 272 274 278 282 285 288 291 293 297 302 308 312 311 304 294 286 286 284 283 285 291 293 296 299 299 298 298 297 297 297 298 298 298 297 295
267 267 266 265 265 266 266 267 269 272 275 279 282 286 290 293 299 305 308 312 314 310 303 296 289 286 287 290 293 295 296 297 297 297 297 297 296 296 296 296 296 296 295
265 266 266 265 265 264 264 265 267 271 274 277 279 282 287 291 298 303 306 310 312 312 306 303 300 294 292 292 293 294 295 295 295 296 296 296 295 296 296 296 296 296 295
263 264 264 264 262 261 261 263 266 269 272 276 278 281 286 291 295 301 305 307 309 308 304 302 299 294 293 293 293 293 294 294 294 295 295 295 295 296 296 297 296 296 296
261 260 259 258 258 259 260 263 266 269 272 275 279 282 286 290 295 300 303 305 305 304 299 298 296 293 293 292 291 292 293 293 293 294 294 295 296 297 297 297 297 297 297
260 259 258 257 258 259 261 263 265 268 271 275 279 284 288 292 295 299 301 302 302 300 298 297 296 294 292 291 291 292 292 292 293 294 295 296 297 298 298 298 298 298 298
258 257 259 260 260 261 262 263 265 268 271 275 280 284 289 293 296 298 299 300 300 298 297 296 295 293 292 291 291 291 292 293 293 294 296 297 298 298 298 299 299 298 298
259 260 261 263 264 264 265 265 267 270 273 277 281 286 290 293 295 297 297 298 298 297 296 295 294 293 292 292 291 292 292 293 294 295 296 297 298 299 299 300 299 300 300
263 264 266 267 268 269 270 271 272 274 276 281 285 288 290 292 294 295 297 297 296 296 295 295 294 293 292 291 291 292 293 294 295 296 297 298 299 300 300 301 301 302 303
265 267 269 271 272 274 275 276 276 278 280 283 285 288 290 291 292 293 294 294 294 294 294 293 292 291 291 291 291 292 293 295 296 297 298 299 300 301 302 303 304 305 306
267 269 272 274 275 276 277 278 278 279 281 283 285 287 288 289 290 291 292 292 293 292 292 291 290 290 290 291 292 293 295 296 297 298 299 300 302 303 305 306 307 307 308
268 270 272 276 277 277 278 279 280 280 281 282 284 285 287 288 289 290 290 291 291 290 290 290 290 290 291 292 293 295 296 297 298 300 302 303 304 306 307 308 308 309 310
268 271 273 276 278 278 279 280 280 282 283 283 284 286 287 288 288 289 289 289 289 290 290 290 290 291 292 293 294 296 297 298 300 301 303 305 307 308 309 309 310 311 313
269 271 273 274 275 276 277 278 280 281 282 284 286 287 287 288 288 288 289 289 289 290 290 291 291 292 293 294 295 296 298 299 301 303 304 306 307 308 309 309 310 312 314
269 270 271 272 272 274 276 279 281 283 285 286 287 287 288 288 289 289 289 290 290 290 291 291 292 293 294 295 296 297 299 300 302 304 305 306 307 308 308 309 310 312 314
267 269 272 274 277 280 281 283 284 285 286 287 288 288 289 289 290 290 290 290 290 291 292 292 293 294 295 295 297 298 300 301 302 303 304 305 306 307 307 309 312 315 318
270 273 276 279 281 283 284 285 286 288 289 290 290 290 290 290 290 290 290 291 291 292 293 293 294 294 295 296 297 298 299 299 300 301 303 305 306 306 309 312 316 319 323
276 278 280 282 284 285 286 288 288 289 290 290 290 290 290 290 291 291 292 293 293 293 294 294 295 296 296 297 297 297 296 297 297 298 299 301 301 306 313 318 323 327 332
280 282 284 286 287 288 289 290 291 291 291 291 291 291 291 292 293 294 295 295 295 296 296 297 297 297 297 296 296 294 293 293 293 293 293 293 299 311 319 326 331 338 344
284 286 288 289 290 291 291 292 293 293 293 293 294 295 296 297 297 298 298 298 298 298 298 298 297 297 297 296 294 292 291 288 284 277 277 288 306 320 329 338 347 355 359
289 290 291 291 292 293 293 294 295 296 297 299 300 301 301 302 301 301 301 300 299 299 299 299 298 298 297 295 293 290 284 269 231 212 238 306 327 341 352 2 12 16 15
293 293 294 296 297 299 300 301 303 304 305 305 305 305 305 305 304 304 304 303 303 303 303 303 302 301 299 295 289 272 200 154 146 140 101 18 10 16 23 29 33 32 30
Height
5875 5875 5876 5876 5875 5875 5874 5873 5871 5869 5867 5865 5863 5860 5857 5854 5850 5846 5843 5840 5838 5835 5832 5830 5829 5827 5828 5828 5828 5828 5827 5827 5826 5826 5825 5824 5822 5820 5819 5817 5814 5812 5810
5869 5870 5871 5871 5871 5870 5869 5868 5866 5864 5862 5859 5856 5854 5849 5846 5842 5838 5836 5833 5830 5827 5825 5823 5822 5820 5820 5821 5820 5821 5820 5820 5819 5818 5817 5815 5814 5812 5809 5807 5804 5801 5798
5863 5864 5865 5865 5865 5864 5864 5863 5861 5859 5857 5854 5851 5847 5843 5839 5835 5832 5829 5826 5823 5821 5819 5817 5815 5814 5814 5814 5813 5813 5813 5813 5812 5810 5809 5806 5804 5802 5800 5796 5792 5788 5785
5855 5857 5858 5858 5858 5858 5858 5857 5855 5853 5851 5848 5845 5842 5838 5833 5829 5825 5822 5820 5818 5815 5813 5812 5810 5809 5808 5808 5807 5806 5805 5805 5803 5802 5799 5797 5793 5789 5785 5782 5779 5775 5770
5847 5848 5850 5850 5851 5851 5851 5850 5849 5847 5845 5842 5839 5836 5833 5828 5825 5821 5817 5816 5813 5810 5807 5806 5805 5804 5802 5801 5800 5799 5798 5796 5794 5792 5789 5786 5782 5777 5773 5768 5763 5758 5753
5839 5840 5841 5842 5843 5843 5843 5843 5842 5840 5838 5835 5832 5829 5826 5823 5820 5816 5813 5811 5808 5805 5803 5801 5799 5798 5796 5795 5793 5791 5789 5787 5784 5781 5777 5774 5769 5765 5760 5754 5749 5743 5737
5830 5832 5833 5834 5835 5835 5835 5834 5833 5832 5830 5827 5824 5821 5819 5817 5814 5810 5807 5804 5802 5800 5797 5795 5793 5791 5789 5787 5785 5782 5780 5776 5773 5769 5765 5760 5755 5750 5744 5739 5733 5727 5721
5822 5823 5824 5825 5826 5826 5826 5826 5825 5823 5822 5819 5817 5814 5812 5809 5806 5803 5800 5797 5795 5792 5790 5787 5785 5783 5781 5778 5775 5772 5768 5764 5760 5756 5751 5746 5741 5735 5729 5722 5716 5710 5704
5815 5816 5817 5818 5818 5818 5818 5818 5817 5815 5813 5811 5809 5806 5804 5801 5798 5795 5792 5789 5787 5784 5782 5779 5777 5774 5771 5767 5764 5760 5756 5752 5747 5742 5737 5731 5725 5719 5712 5705 5698 5692 5687
5808 5809 5810 5810 5811 5811 5811 5810 5808 5807 5805 5803 5801 5798 5795 5792 5789 5786 5783 5780 5777 5774 5772 5769 5766 5763 5759 5755 5751 5747 5743 5738 5733 5727 5722 5715 5709 5702 5695 5689 5681 5674 5668
5802 5802 5803 5803 5803 5803 5802 5801 5800 5799 5797 5794 5792 5789 5786 5783 5780 5777 5773 5770 5767 5764 5761 5758 5754 5750 5746 5742 5738 5734 5729 5724 5718 5712 5706 5700 5694 5686 5680 5673 5666 5658 5651
5794 5795 5795 5795 5795 5794 5793 5792 5791 5789 5787 5785 5782 5779 5776 5773 5770 5766 5763 5760 5756 5753 5749 5745 5741 5737 5733 5728 5724 5719 5714 5709 5703 5697 5691 5685 5679 5672 5665 5658 5650 5642 5634
5787 5787 5786 5786 5786 5785 5784 5783 5781 5779 5777 5774 5772 5769 5766 5762 5759 5755 5751 5747 5744 5740 5736 5732 5727 5723 5719 5714 5709 5705 5700 5694 5689 5683 5677 5671 5664 5658 5650 5643 5635 5627 5618
5778 5778 5777 5776 5776 5775 5774 5772 5770 5768 5766 5763 5761 5758 5755 5751 5747 5743 5739 5735 5731 5726 5722 5718 5713 5709 5704 5700 5695 5690 5685 5680 5675 5669 5663 5657 5651 5644 5636 5628 5620 5612 5603
5768 5768 5767 5766 5765 5764 5762 5761 5759 5757 5754 5752 5749 5746 5742 5739 5735 5731 5726 5722 5717 5713 5708 5704 5699 5694 5690 5685 5681 5676 5672 5667 5662 5656 5650 5644 5638 5630 5622 5614 5606 5599 5591
5758 5757 5756 5755 5754 5752 5750 5748 5746 5744 5741 5739 5736 5733 5730 5725 5721 5717 5713 5708 5703 5699 5694 5689 5684 5680 5676 5671 5667 5663 5658 5654 5649 5643 5637 5630 5624 5617 5610 5602 5595 5588 5582
5747 5746 5745 5744 5742 5740 5738 5736 5734 5732 5729 5726 5723 5720 5716 5711 5707 5702 5698 5693 5689 5684 5680 5675 5671 5667 5663 5658 5654 5650 5645 5641 5636 5630 5624 5618 5611 5605 5599 5592 5586 5580 5574
5735 5734 5733 5732 5730 5728 5726 5724 5722 5719 5716 5713 5709 5706 5701 5697 5692 5688 5684 5679 5675 5670 5666 5661 5657 5654 5650 5646 5642 5637 5633 5629 5624 5619 5613 5607 5601 5596 5590 5584 5579 5574 5569
5725 5724 5722 5721 5719 5717 5714 5712 5710 5707 5703 5700 5696 5691 5687 5683 5678 5674 5670 5666 5661 5657 5653 5648 5644 5641 5638 5634 5629 5625 5621 5616 5612 5608 5603 5598 5593 5589 5584 5579 5575 5570 5565
5715 5714 5712 5710 5708 5706 5704 5701 5698 5694 5691 5687 5682 5678 5674 5669 5665 5661 5657 5652 5648 5644 5640 5636 5632 5628 5625 5622 5617 5613 5609 5605 5602 5598 5594 5590 5587 5583 5579 5575 5571 5567 5562
5706 5704 5702 5700 5698 5695 5693 5689 5686 5682 5678 5674 5669 5665 5660 5656 5652 5648 5644 5640 5636 5632 5627 5624 5620 5616 5613 5610 5606 5603 5599 5596 5592 5589 5587 5584 5581 5578 5575 5572 5568 5563 5558
5698 5696 5693 5691 5688 5685 5682 5678 5675 5671 5666 5662 5658 5653 5649 5645 5641 5636 5632 5628 5623 5619 5615 5611 5608 5604 5601 5598 5595 5593 5590 5587 5585 5583 5581 5579 5577 5575 5572 5569 5565 5561 5556
5690 5687 5685 5682 5679 5675 5672 5668 5664 5660 5655 5651 5647 5642 5638 5634 5629 5625 5620 5616 5612 5607 5603 5600 5597 5594 5591 5588 5586 5584 5582 5580 5579 5577 5576 5575 5574 5573 5570 5567 5563 5559 5554
5681 5679 5676 5673 5670 5666 5662 5659 5654 5650 5646 5641 5637 5632 5628 5623 5618 5614 5609 5605 5601 5597 5593 5590 5587 5584 5582 5580 5578 5576 5575 5574 5573 5573 5574 5574 5573 5571 5569 5565 5562 5558 5554
5674 5671 5669 5665 5662 5658 5654 5650 5646 5642 5637 5632 5627 5623 5618 5613 5608 5604 5600 5596 5592 5589 5586 5582 5579 5577 5575 5573 5571 5570 5570 5570 5571 5572 5573 5573 5572 5570 5568 5565 5562 5559 5555
5668 5665 5662 5659 5655 5652 5648 5643 5639 5634 5629 5624 5619 5614 5609 5604 5600 5596 5592 5588 5585 5582 5579 5576 5574 5571 5570 5568 5567 5567 5568 5569 5571 5572 5573 5572 5571 5570 5568 5565 5563 5560 5557